Location: Petruro
(41.0333°N, 14.7833°E)
Time: 12:50:59
(UTC+00:00)

Cosmos 990 Rocket - Pass Details

Date: 20 June 2021
Orbit: 747 x 768 km, 74.0° (Epoch: 29 July)

Event Time Altitude Azimuth Distance (km) Brightness Sun altitude
Rises 00:14:50 0° 335° (NNW) 3,219 7.9 -23.4°
Reaches altitude 10° 00:17:16 10° 331° (NNW) 2,287 7.0 -23.2°
Maximum altitude 00:22:16 51° 256° (WSW) 938 4.2 -22.9°
Enters shadow 00:22:33 51° 244° (WSW) 945 4.1 -22.9°
